Find Starlink 31891

NORAD ID: 59854 Int'l Des: 2024-097 Owner: SPXS Country: US Constellation: starlink operational
LEOCIRCULAR

当前视图

正在加载3D地球...

About Starlink 31891

Starlink 31891 (NORAD 59854) is a starlink constellation satellite (v2 mini) launched May 23, 2024 by SPXS of US. It operates in LEO, CIRCULAR orbit with a mass of 730.00 kg.

关于 Starlink 31891

正在加载描述...

即将过境

Passes for default location (London). Set your location on the main map for personalized predictions.

高度历史

Loading altitude history...

两行轨道根数

1 59854U 24097V 26170.10392154 .00000999 00000-0 45837-4 0 9992
2 59854 43.0026 61.8961 0001056 265.6908 94.3823 15.27574821117423
Epoch: Jun 19, 2026 • Age: 25 hours

当前状态

高度 484.7 km
速度 7.63 km/s
星下点 32.76°N, 133.43°E
发射日期 May 23, 2024
运行时间 2 years
类型 internet

技术详情

分类 Payload
质量 730.00 kg
干质量 700.00 kg
总质量 730.00 kg
长度 0.30 m
直径 4.10 m
跨度 29.00 m
形状 Box + pan
制造商 SPXS
平台类型 Starlink V2M
阶段状态 In Orbit
所有者/国家 SPXS/US

Most Searched